,,Stat1,,Stat2,,Stat3,,Stat4,,Wind1,,Wind1,
time,status,PR1M_SUM,status,RH1M_AVG,status,SR1M_AVG,status,TA1M_AVG,status,W1dAve1m,status,W1sAve1m,
1999-09-07, 00:01:00,VALID,0,VALID,99.7548,VALID,0,VALID,19.2555,VALID,93,VALID,0,
1999-09-07, 00:02:00,VALID,0,VALID,99.7167,VALID,-0.0169808,VALID,19.2916,VALID,92,VALID,0,
1999-09-07, 00:03:00,VALID,0,VALID,99.7014,VALID,0.0169808,VALID,19.2878,VALID,92,VALID,0,
1999-09-07, 00:04:00,VALID,0,VALID,99.6849,VALID,0,VALID,19.3043,VALID,144,VALID,0,
1999-09-07, 00:05:00,VALID,0,VALID,99.6531,VALID,0,VALID,19.2938,VALID,174,VALID,0,
1999-09-07, 00:06:00,VALID,0,VALID,99.6493,VALID,-0.0339617,VALID,19.3043,VALID,178,VALID,0,
1999-09-07, 00:07:00,VALID,0,VALID,99.6785,VALID,0.0169808,VALID,19.3264,VALID,177,VALID,0,
1999-09-07, 00:08:00,VALID,0,VALID,99.6849,VALID,0,VALID,19.3597,VALID,176,VALID,0,
1999-09-07, 00:09:00,VALID,0,VALID,99.6455,VALID,0,VALID,19.3493,VALID,176,VALID,0,
1999-09-07, 00:10:01,VALID,0,VALID,99.5921,VALID,-0.0169808,VALID,19.3296,VALID,176,VALID,0,
1999-09-07, 00:11:00,VALID,0,VALID,99.587,VALID,0.0169808,VALID,19.3331,VALID,176,VALID,0,
1999-09-07, 00:12:00,VALID,0,VALID,99.5857,VALID,0,VALID,19.3468,VALID,176,VALID,0,
1999-09-07, 00:13:00,VALID,0,VALID,99.6035,VALID,0,VALID,19.3493,VALID,176,VALID,0,
1999-09-07, 00:14:00,VALID,0,VALID,99.5692,VALID,-0.0339617,VALID,19.3557,VALID,176,VALID,0,
1999-09-07, 00:15:00,VALID,0,VALID,99.5552,VALID,-0.0169808,VALID,19.3592,VALID,176,VALID,0,
1999-09-07, 00:16:00,VALID,0,VALID,99.587,VALID,-0.0339617,VALID,19.3784,VALID,176,VALID,0,
1999-09-07, 00:17:00,VALID,0,VALID,99.5768,VALID,0,VALID,19.3943,VALID,176,VALID,0,
1999-09-07, 00:18:00,VALID,0,VALID,99.4446,VALID,0,VALID,19.356,VALID,152,VALID,0,
1999-09-07, 00:19:01,VALID,0,VALID,99.3644,VALID,-0.0169808,VALID,19.3269,VALID,126,VALID,0,
1999-09-07, 00:20:01,VALID,0,VALID,99.2971,VALID,0,VALID,19.2871,VALID,117,VALID,0,
1999-09-07, 00:21:01,VALID,0,VALID,99.2805,VALID,-0.0169808,VALID,19.2841,VALID,115,VALID,0,
1999-09-07, 00:22:00,VALID,0,VALID,99.3199,VALID,0.0339617,VALID,19.3005,VALID,115,VALID,0,
1999-09-07, 00:23:00,VALID,0,VALID,99.3772,VALID,0,VALID,19.3093,VALID,115,VALID,0,
1999-09-07, 00:24:00,VALID,0,VALID,99.395,VALID,0,VALID,19.3455,VALID,115,VALID,0,
1999-09-07, 00:25:00,VALID,0,VALID,99.3835,VALID,-0.0169808,VALID,19.3622,VALID,115,VALID,0,
1999-09-07, 00:26:00,VALID,0,VALID,99.3276,VALID,0.0169808,VALID,19.3254,VALID,115,VALID,0,
1999-09-07, 00:27:00,VALID,0,VALID,99.2767,VALID,0,VALID,19.3202,VALID,120,VALID,0,
1999-09-07, 00:28:00,VALID,0,VALID,99.2742,VALID,0,VALID,19.3132,VALID,107,VALID,0,
1999-09-07, 00:29:00,VALID,0,VALID,99.2411,VALID,0.0169808,VALID,19.2936,VALID,109,VALID,0,
1999-09-07, 00:30:00,VALID,0,VALID,99.208,VALID,0,VALID,19.2913,VALID,109,VALID,0,
1999-09-07, 00:31:00,VALID,0,VALID,99.189,VALID,0,VALID,19.265,VALID,111,VALID,0,
1999-09-07, 00:32:01,VALID,0,VALID,99.1635,VALID,0.0169808,VALID,19.2525,VALID,116,VALID,0,
1999-09-07, 00:33:00,VALID,0,VALID,99.1343,VALID,0.0169808,VALID,19.2364,VALID,150,VALID,0,
1999-09-07, 00:34:00,VALID,0,VALID,99.0809,VALID,0,VALID,19.2105,VALID,193,VALID,0,
1999-09-07, 00:35:00,VALID,0,VALID,99.0783,VALID,-0.0169808,VALID,19.1846,VALID,197,VALID,0,
1999-09-07, 00:36:00,VALID,0,VALID,99.0885,VALID,0.0169808,VALID,19.168,VALID,198,VALID,0,
1999-09-07, 00:37:00,VALID,0,VALID,99.1267,VALID,0,VALID,19.1583,VALID,198,VALID,0,
1999-09-07, 00:38:00,VALID,0,VALID,99.1267,VALID,0,VALID,19.1583,VALID,188,VALID,0,
1999-09-07, 00:39:00,VALID,0,VALID,99.1635,VALID,0,VALID,19.1615,VALID,182,VALID,0,
1999-09-07, 00:40:00,VALID,0,VALID,99.1724,VALID,0,VALID,19.1747,VALID,186,VALID,0,
1999-09-07, 00:41:01,VALID,0,VALID,99.1063,VALID,0,VALID,19.162,VALID,168,VALID,0,
1999-09-07, 00:42:00,VALID,0,VALID,98.8609,VALID,0,VALID,19.0809,VALID,157,VALID,0,
1999-09-07, 00:43:01,VALID,0,VALID,98.7287,VALID,0,VALID,19.0322,VALID,153,VALID,0,
1999-09-07, 00:44:00,VALID,0,VALID,98.6943,VALID,0,VALID,19.0131,VALID,153,VALID,0,
1999-09-07, 00:45:00,VALID,0,VALID,98.7058,VALID,0,VALID,19.017,VALID,153,VALID,0,
1999-09-07, 00:46:00,VALID,0,VALID,98.5532,VALID,0,VALID,18.9678,VALID,154,VALID,0,
1999-09-07, 00:47:00,VALID,0,VALID,98.5277,VALID,0,VALID,18.9322,VALID,157,VALID,0,
1999-09-07, 00:48:00,VALID,0,VALID,98.6091,VALID,0,VALID,18.9325,VALID,157,VALID,0,
1999-09-07, 00:49:00,VALID,0,VALID,98.6943,VALID,-0.0169808,VALID,18.9295,VALID,157,VALID,0,
1999-09-07, 00:50:00,VALID,0,VALID,98.7096,VALID,0,VALID,18.9096,VALID,169,VALID,0,
1999-09-07, 00:51:00,VALID,0,VALID,98.8291,VALID,-0.0169808,VALID,18.9166,VALID,176,VALID,0,
1999-09-07, 00:52:00,VALID,0,VALID,98.9092,VALID,-0.0169808,VALID,18.9332,VALID,176,VALID,0,
1999-09-07, 00:53:00,VALID,0,VALID,98.8978,VALID,0.0169808,VALID,18.9293,VALID,182,VALID,0,
1999-09-07, 00:54:00,VALID,0,VALID,98.8634,VALID,-0.0169808,VALID,18.8902,VALID,190,VALID,0.376116,
1999-09-07, 00:55:00,VALID,0,VALID,99.0262,VALID,-0.0169808,VALID,18.9034,VALID,189,VALID,0.87168,
1999-09-07, 00:56:00,VALID,0,VALID,99.0567,VALID,0,VALID,18.9032,VALID,194,VALID,0.732113,
1999-09-07, 00:57:00,VALID,0,VALID,99.0008,VALID,-0.0169808,VALID,18.8942,VALID,193,VALID,0.471571,
1999-09-07, 00:58:00,VALID,0,VALID,99.0008,VALID,0,VALID,18.8648,VALID,196,VALID,0.433494,
1999-09-07, 00:59:00,VALID,0,VALID,98.9893,VALID,0,VALID,18.845,VALID,197,VALID,0.331597,
1999-09-07, 01:00:00,VALID,0,VALID,98.9537,VALID,0,VALID,18.8265,VALID,197,VALID,0.0590946,
1999-09-07, 01:01:00,VALID,0,VALID,99.0097,VALID,0,VALID,18.8067,VALID,212,VALID,0,
1999-09-07, 01:02:00,VALID,0,VALID,99.0809,VALID,0.0169808,VALID,18.8096,VALID,232,VALID,0,
1999-09-07, 01:03:00,VALID,0,VALID,99.1292,VALID,0,VALID,18.8228,VALID,231,VALID,0,
1999-09-07, 01:04:01,VALID,0,VALID,99.1394,VALID,0,VALID,18.8258,VALID,216,VALID,0,
1999-09-07, 01:05:00,VALID,0,VALID,99.1852,VALID,0,VALID,18.8226,VALID,199,VALID,0.0926649,
1999-09-07, 01:06:00,VALID,0,VALID,99.2055,VALID,0,VALID,18.832,VALID,187,VALID,0.495355,
1999-09-07, 01:07:00,VALID,0,VALID,99.1877,VALID,0,VALID,18.8325,VALID,182,VALID,0.520616,
1999-09-07, 01:08:00,VALID,0,VALID,99.1991,VALID,0.0169808,VALID,18.8387,VALID,171,VALID,0.612805,
1999-09-07, 01:09:00,VALID,0,VALID,98.9753,VALID,-0.0169808,VALID,18.7704,VALID,157,VALID,0.623481,
1999-09-07, 01:10:00,VALID,0,VALID,99.1228,VALID,-0.0169808,VALID,18.7801,VALID,157,VALID,0.724805,
1999-09-07, 01:11:00,VALID,0,VALID,99.2398,VALID,0.0169808,VALID,18.8551,VALID,162,VALID,0.733758,
1999-09-07, 01:12:00,VALID,0,VALID,99.1457,VALID,0,VALID,18.8355,VALID,171,VALID,0.727829,
1999-09-07, 01:13:00,VALID,0,VALID,98.997,VALID,0,VALID,18.8039,VALID,183,VALID,0.714258,
1999-09-07, 01:14:00,VALID,0,VALID,98.9334,VALID,-0.0169808,VALID,18.7166,VALID,166,VALID,0.628174,
1999-09-07, 01:15:00,VALID,0,VALID,99.1737,VALID,-0.0169808,VALID,18.7519,VALID,186,VALID,1.00641,
1999-09-07, 01:16:00,VALID,0,VALID,99.1788,VALID,-0.0169808,VALID,18.7808,VALID,178,VALID,0.888569,
1999-09-07, 01:17:00,VALID,0,VALID,99.133,VALID,0,VALID,18.7388,VALID,175,VALID,0.935238,
1999-09-07, 01:18:00,VALID,0,VALID,99.4446,VALID,0,VALID,18.797,VALID,189,VALID,1.31102,
1999-09-07, 01:19:00,VALID,0,VALID,99.4547,VALID,0,VALID,18.8454,VALID,194,VALID,1.40851,
1999-09-07, 01:20:00,VALID,0,VALID,99.3823,VALID,0,VALID,18.8385,VALID,189,VALID,1.19922,
1999-09-07, 01:21:00,VALID,0,VALID,99.4764,VALID,0,VALID,18.8581,VALID,187,VALID,1.11719,
1999-09-07, 01:22:00,VALID,0,VALID,99.5616,VALID,-0.0169808,VALID,18.9073,VALID,183,VALID,0.893914,
1999-09-07, 01:23:00,VALID,0,VALID,99.6289,VALID,0,VALID,18.9621,VALID,174,VALID,0.886719,
1999-09-07, 01:24:00,VALID,0,VALID,99.4967,VALID,-0.0169808,VALID,18.9551,VALID,170,VALID,0.609375,
1999-09-07, 01:25:00,VALID,0,VALID,99.4878,VALID,0,VALID,18.926,VALID,161,VALID,0.690705,
1999-09-07, 01:26:01,VALID,0,VALID,99.3263,VALID,0,VALID,18.8618,VALID,158,VALID,0.415118,
1999-09-07, 01:27:00,VALID,0,VALID,99.1394,VALID,-0.0169808,VALID,18.7487,VALID,156,VALID,0.121916,
1999-09-07, 01:28:00,VALID,0,VALID,99.0275,VALID,-0.0849042,VALID,18.6654,VALID,156,VALID,0,
1999-09-07, 01:29:00,VALID,0,VALID,99.072,VALID,-0.0679233,VALID,18.6455,VALID,156,VALID,0,
1999-09-07, 01:30:00,VALID,0,VALID,99.0644,VALID,-0.0339617,VALID,18.6164,VALID,156,VALID,0,
1999-09-07, 01:31:00,VALID,0,VALID,99.0796,VALID,-0.0339617,VALID,18.6266,VALID,154,VALID,0.0711571,
1999-09-07, 01:32:00,VALID,0,VALID,98.9575,VALID,-0.0679233,VALID,18.5714,VALID,121,VALID,0.229297,
1999-09-07, 01:33:00,VALID,0,VALID,98.9245,VALID,-0.0679233,VALID,18.546,VALID,115,VALID,0.230769,
1999-09-07, 01:34:00,VALID,0,VALID,99.3276,VALID,-0.0849042,VALID,18.6527,VALID,357,VALID,0.4394,
1999-09-07, 01:35:00,VALID,0,VALID,99.4522,VALID,-0.0509425,VALID,18.7265,VALID,356,VALID,0.112216,
1999-09-07, 01:36:00,VALID,0,VALID,99.4624,VALID,-0.0849042,VALID,18.7561,VALID,356,VALID,0,
1999-09-07, 01:37:00,VALID,0,VALID,99.4433,VALID,-0.0849042,VALID,18.7561,VALID,356,VALID,0,
1999-09-07, 01:38:00,VALID,0,VALID,99.4128,VALID,-0.0849042,VALID,18.7559,VALID,356,VALID,0,
1999-09-07, 01:39:00,VALID,0,VALID,99.3301,VALID,-0.101885,VALID,18.7104,VALID,356,VALID,0,
1999-09-07, 01:40:00,VALID,0,VALID,99.2882,VALID,-0.0849042,VALID,18.6751,VALID,356,VALID,0,
1999-09-07, 01:41:00,VALID,0,VALID,99.3085,VALID,-0.0679233,VALID,18.6624,VALID,356,VALID,0,
1999-09-07, 01:42:00,VALID,0,VALID,99.2106,VALID,-0.0849042,VALID,18.6044,VALID,356,VALID,0,
1999-09-07, 01:43:00,VALID,0,VALID,99.2119,VALID,-0.0849042,VALID,18.5622,VALID,356,VALID,0,
1999-09-07, 01:44:00,VALID,0,VALID,99.4204,VALID,-0.0169808,VALID,18.5878,VALID,349,VALID,0,
1999-09-07, 01:45:00,VALID,0,VALID,99.4026,VALID,-0.0679233,VALID,18.6171,VALID,213,VALID,0,
1999-09-07, 01:46:00,VALID,0,VALID,99.2525,VALID,-0.101885,VALID,18.5818,VALID,214,VALID,0,
1999-09-07, 01:47:00,VALID,0,VALID,99.2068,VALID,-0.0509425,VALID,18.5137,VALID,218,VALID,0,
1999-09-07, 01:48:00,VALID,0,VALID,99.306,VALID,-0.101885,VALID,18.4938,VALID,218,VALID,0,
1999-09-07, 01:49:00,VALID,0,VALID,99.3098,VALID,-0.0679233,VALID,18.5077,VALID,225,VALID,0,
1999-09-07, 01:50:00,VALID,0,VALID,99.2513,VALID,-0.0849042,VALID,18.4553,VALID,239,VALID,0,
1999-09-07, 01:51:00,VALID,0,VALID,99.2411,VALID,-0.101885,VALID,18.4331,VALID,239,VALID,0,
1999-09-07, 01:52:00,VALID,0,VALID,99.325,VALID,-0.0849042,VALID,18.407,VALID,239,VALID,0,
1999-09-07, 01:53:00,VALID,0,VALID,99.3759,VALID,-0.101885,VALID,18.4366,VALID,239,VALID,0.108803,
1999-09-07, 01:54:00,VALID,0,VALID,99.325,VALID,-0.0169808,VALID,18.4137,VALID,241,VALID,0.48546,
1999-09-07, 01:55:00,VALID,0,VALID,99.3238,VALID,-0.0679233,VALID,18.3814,VALID,244,VALID,0.433984,
1999-09-07, 01:56:00,VALID,0,VALID,99.3734,VALID,-0.101885,VALID,18.3881,VALID,247,VALID,0.283512,
1999-09-07, 01:57:00,VALID,0,VALID,99.4318,VALID,-0.0509425,VALID,18.3904,VALID,252,VALID,0.260769,
1999-09-07, 01:58:00,VALID,0,VALID,99.4929,VALID,0,VALID,18.4091,VALID,256,VALID,0.576953,
1999-09-07, 01:59:00,VALID,0,VALID,99.573,VALID,0.0169808,VALID,18.4384,VALID,256,VALID,0.316406,
1999-09-07, 02:00:00,VALID,0,VALID,99.573,VALID,0,VALID,18.455,VALID,255,VALID,0.350761,
1999-09-07, 02:01:00,VALID,0,VALID,99.5158,VALID,0.0169808,VALID,18.4446,VALID,251,VALID,0.298931,
1999-09-07, 02:02:00,VALID,0,VALID,99.4624,VALID,0,VALID,18.4093,VALID,243,VALID,0.315173,
1999-09-07, 02:03:00,VALID,0,VALID,99.5259,VALID,0.0169808,VALID,18.3962,VALID,243,VALID,0.353041,
1999-09-07, 02:04:00,VALID,0,VALID,99.6175,VALID,0,VALID,18.3964,VALID,243,VALID,0.298931,
1999-09-07, 02:05:00,VALID,0,VALID,99.6544,VALID,-0.0849042,VALID,18.4204,VALID,243,VALID,0.217882,
1999-09-07, 02:06:00,VALID,0,VALID,99.6226,VALID,-0.0849042,VALID,18.4169,VALID,243,VALID,0.0227865,
1999-09-07, 02:07:00,VALID,0,VALID,99.6671,VALID,-0.0339617,VALID,18.4296,VALID,243,VALID,0,
1999-09-07, 02:08:00,VALID,0,VALID,99.6226,VALID,-0.101885,VALID,18.4338,VALID,243,VALID,0,
1999-09-07, 02:09:00,VALID,0,VALID,99.6175,VALID,-0.0849042,VALID,18.4072,VALID,243,VALID,0,
1999-09-07, 02:10:00,VALID,0,VALID,99.6735,VALID,-0.0679233,VALID,18.4107,VALID,243,VALID,0,
1999-09-07, 02:11:00,VALID,0,VALID,99.7129,VALID,-0.101885,VALID,18.4336,VALID,243,VALID,0,
1999-09-07, 02:12:00,VALID,0,VALID,99.5209,VALID,-0.0849042,VALID,18.3715,VALID,230,VALID,0,
1999-09-07, 02:13:00,VALID,0,VALID,99.5031,VALID,0.0849042,VALID,18.2789,VALID,217,VALID,0,
1999-09-07, 02:14:00,VALID,0,VALID,99.6277,VALID,0.0849042,VALID,18.2953,VALID,217,VALID,0,
1999-09-07, 02:15:00,VALID,0,VALID,99.5933,VALID,0.0849042,VALID,18.2696,VALID,217,VALID,0,
1999-09-07, 02:16:00,VALID,0,VALID,99.6162,VALID,0.0849042,VALID,18.2629,VALID,217,VALID,0,
1999-09-07, 02:17:00,VALID,0,VALID,99.5247,VALID,0.101885,VALID,18.1985,VALID,217,VALID,0,
1999-09-07, 02:18:00,VALID,0,VALID,99.4369,VALID,0.0849042,VALID,18.1568,VALID,175,VALID,0.455529,
1999-09-07, 02:19:00,VALID,0,VALID,99.5158,VALID,0.0679233,VALID,18.124,VALID,154,VALID,0.903716,
1999-09-07, 02:20:01,VALID,0,VALID,99.9489,VALID,0.118866,VALID,18.3054,VALID,169,VALID,0.812263,
1999-09-07, 02:21:00,VALID,0,VALID,100,VALID,0.0509425,VALID,18.4862,VALID,172,VALID,0.623197,
1999-09-07, 02:22:00,VALID,0,VALID,99.988,VALID,0.0679233,VALID,18.567,VALID,172,VALID,0.461554,
1999-09-07, 02:23:00,VALID,0,VALID,99.9265,VALID,0.0339617,VALID,18.5675,VALID,172,VALID,0.741753,
1999-09-07, 02:24:00,VALID,0,VALID,99.8922,VALID,0.0509425,VALID,18.5645,VALID,173,VALID,0.792411,
1999-09-07, 02:25:00,VALID,0,VALID,99.8642,VALID,0.0849042,VALID,18.5705,VALID,189,VALID,0.869141,
1999-09-07, 02:26:00,VALID,0,VALID,99.8159,VALID,0.0509425,VALID,18.5448,VALID,199,VALID,1.09519,
1999-09-07, 02:27:00,VALID,0,VALID,99.8349,VALID,0.0679233,VALID,18.5314,VALID,201,VALID,1.22374,
1999-09-07, 02:28:00,VALID,0,VALID,99.8667,VALID,-0.0169808,VALID,18.5555,VALID,199,VALID,0.99359,
1999-09-07, 02:29:00,VALID,0,VALID,99.9392,VALID,-0.0339617,VALID,18.585,VALID,203,VALID,1.21832,
1999-09-07, 02:30:00,VALID,0,VALID,99.9761,VALID,-0.0509425,VALID,18.63,VALID,203,VALID,1.13141,
1999-09-07, 02:31:00,VALID,0,VALID,99.9443,VALID,-0.0169808,VALID,18.6455,VALID,204,VALID,0.931377,
1999-09-07, 02:32:00,VALID,0,VALID,99.9316,VALID,-0.0169808,VALID,18.6589,VALID,202,VALID,1.09396,
1999-09-07, 02:33:00,VALID,0,VALID,99.9507,VALID,0,VALID,18.6684,VALID,204,VALID,0.980363,
1999-09-07, 02:34:00,VALID,0,VALID,99.9507,VALID,0,VALID,18.6746,VALID,210,VALID,0.851357,
1999-09-07, 02:35:00,VALID,0,VALID,99.9847,VALID,0,VALID,18.7005,VALID,196,VALID,1.13759,
1999-09-07, 02:36:00,VALID,0,VALID,99.9832,VALID,-0.0169808,VALID,18.7231,VALID,201,VALID,0.926943,
1999-09-07, 02:37:00,VALID,0,VALID,99.9723,VALID,0,VALID,18.7429,VALID,200,VALID,0.743924,
1999-09-07, 02:38:00,VALID,0,VALID,99.9672,VALID,-0.0169808,VALID,18.7325,VALID,196,VALID,0.566883,
1999-09-07, 02:39:00,VALID,0,VALID,99.9723,VALID,-0.0169808,VALID,18.7526,VALID,220,VALID,0.762804,
1999-09-07, 02:40:00,VALID,0,VALID,99.9812,VALID,0,VALID,18.7589,VALID,194,VALID,0.792383,
1999-09-07, 02:41:00,VALID,0,VALID,99.9883,VALID,0.0169808,VALID,18.7579,VALID,210,VALID,0.599301,
1999-09-07, 02:42:00,VALID,0,VALID,99.9697,VALID,0,VALID,18.7718,VALID,199,VALID,0.597973,
1999-09-07, 02:43:01,VALID,0,VALID,99.9735,VALID,-0.0169808,VALID,18.7723,VALID,212,VALID,0.482422,
1999-09-07, 02:44:00,VALID,0,VALID,99.9596,VALID,0,VALID,18.7552,VALID,198,VALID,0.770996,
1999-09-07, 02:45:00,VALID,0,VALID,99.9481,VALID,-0.0339617,VALID,18.7591,VALID,207,VALID,0.678285,
1999-09-07, 02:46:00,VALID,0,VALID,99.9672,VALID,-0.0339617,VALID,18.7489,VALID,219,VALID,0.583882,
1999-09-07, 02:47:00,VALID,0,VALID,99.9697,VALID,0,VALID,18.7492,VALID,224,VALID,0.651316,
1999-09-07, 02:48:00,VALID,0,VALID,99.9621,VALID,-0.0509425,VALID,18.7429,VALID,221,VALID,0.555321,
1999-09-07, 02:49:00,VALID,0,VALID,99.9583,VALID,-0.0169808,VALID,18.7293,VALID,230,VALID,0.755962,
1999-09-07, 02:50:00,VALID,0,VALID,99.9519,VALID,-0.0169808,VALID,18.7201,VALID,226,VALID,0.781467,
1999-09-07, 02:51:00,VALID,0,VALID,99.9621,VALID,0,VALID,18.7064,VALID,232,VALID,0.712457,
1999-09-07, 02:52:00,VALID,0,VALID,99.9545,VALID,0,VALID,18.6975,VALID,222,VALID,0.722656,
1999-09-07, 02:53:00,VALID,0,VALID,99.9723,VALID,-0.0169808,VALID,18.6873,VALID,231,VALID,0.627056,
1999-09-07, 02:54:01,VALID,0,VALID,99.9786,VALID,0,VALID,18.6811,VALID,234,VALID,0.588839,
1999-09-07, 02:55:00,VALID,0,VALID,99.9847,VALID,0,VALID,18.6845,VALID,251,VALID,0.500801,
1999-09-07, 02:56:00,VALID,0,VALID,99.9934,VALID,-0.0339617,VALID,18.6811,VALID,252,VALID,0.474029,
1999-09-07, 02:57:00,VALID,0,VALID,99.9797,VALID,0,VALID,18.6811,VALID,245,VALID,0.417763,
1999-09-07, 02:58:00,VALID,0,VALID,99.9189,VALID,-0.0169808,VALID,18.646,VALID,215,VALID,0.473242,
1999-09-07, 02:59:00,VALID,0,VALID,99.9303,VALID,-0.0509425,VALID,18.6134,VALID,210,VALID,0.348307,
1999-09-07, 03:00:00,VALID,0,VALID,99.9392,VALID,-0.0169808,VALID,18.5841,VALID,228,VALID,0.530649,
1999-09-07, 03:01:00,VALID,0,VALID,99.9685,VALID,-0.0169808,VALID,18.5779,VALID,228,VALID,0.791807,
1999-09-07, 03:02:00,VALID,0,VALID,99.9519,VALID,-0.0339617,VALID,18.5522,VALID,225,VALID,0.781641,
1999-09-07, 03:03:00,VALID,0,VALID,99.9443,VALID,-0.0339617,VALID,18.5361,VALID,215,VALID,0.61899,
1999-09-07, 03:04:00,VALID,0,VALID,99.9891,VALID,-0.0339617,VALID,18.5395,VALID,214,VALID,0.781039,
1999-09-07, 03:05:01,VALID,0,VALID,100,VALID,0,VALID,18.5719,VALID,207,VALID,0.596591,
1999-09-07, 03:06:00,VALID,0,VALID,100,VALID,-0.0169808,VALID,18.5709,VALID,196,VALID,0.585537,
1999-09-07, 03:07:00,VALID,0,VALID,100,VALID,-0.0509425,VALID,18.5816,VALID,189,VALID,0.502878,
1999-09-07, 03:08:00,VALID,0,VALID,100,VALID,-0.0339617,VALID,18.5843,VALID,191,VALID,0.417752,
1999-09-07, 03:09:00,VALID,0,VALID,99.9781,VALID,-0.0509425,VALID,18.5289,VALID,185,VALID,0.400893,
1999-09-07, 03:10:00,VALID,0,VALID,99.9265,VALID,-0.0169808,VALID,18.4615,VALID,180,VALID,0.423242,
1999-09-07, 03:11:00,VALID,0,VALID,100,VALID,-0.0679233,VALID,18.4781,VALID,180,VALID,0.523849,
1999-09-07, 03:12:00,VALID,0,VALID,100,VALID,0,VALID,18.5072,VALID,197,VALID,0.613498,
1999-09-07, 03:13:00,VALID,0,VALID,100,VALID,-0.0169808,VALID,18.5167,VALID,208,VALID,0.876002,
1999-09-07, 03:14:00,VALID,0,VALID,100,VALID,0,VALID,18.5167,VALID,214,VALID,0.893229,
1999-09-07, 03:15:00,VALID,0,VALID,100,VALID,-0.0339617,VALID,18.537,VALID,214,VALID,1.01302,
1999-09-07, 03:16:01,VALID,0,VALID,100,VALID,-0.0679233,VALID,18.5164,VALID,216,VALID,0.858108,
1999-09-07, 03:17:00,VALID,0,VALID,100,VALID,-0.0169808,VALID,18.5007,VALID,210,VALID,0.518792,
1999-09-07, 03:18:00,VALID,0,VALID,100,VALID,-0.0169808,VALID,18.4878,VALID,210,VALID,0.393159,
1999-09-07, 03:19:00,VALID,0,VALID,99.999,VALID,-0.0169808,VALID,18.4846,VALID,202,VALID,0,
1999-09-07, 03:20:00,VALID,0,VALID,99.9817,VALID,-0.0509425,VALID,18.4292,VALID,202,VALID,0,
1999-09-07, 03:21:00,VALID,0,VALID,99.9303,VALID,-0.0849042,VALID,18.3648,VALID,202,VALID,0,
1999-09-07, 03:22:00,VALID,0,VALID,99.9735,VALID,-0.0339617,VALID,18.3456,VALID,209,VALID,0,
1999-09-07, 03:23:00,VALID,0,VALID,99.9494,VALID,-0.0169808,VALID,18.3031,VALID,217,VALID,0,
1999-09-07, 03:24:00,VALID,0,VALID,99.9769,VALID,-0.0339617,VALID,18.2872,VALID,222,VALID,0.251953,
1999-09-07, 03:25:00,VALID,0,VALID,100,VALID,0,VALID,18.2807,VALID,213,VALID,0,
1999-09-07, 03:26:00,VALID,0,VALID,100,VALID,0,VALID,18.2805,VALID,203,VALID,0,
1999-09-07, 03:27:01,VALID,0,VALID,100,VALID,0,VALID,18.2874,VALID,198,VALID,0,
1999-09-07, 03:28:00,VALID,0,VALID,100,VALID,-0.0169808,VALID,18.2844,VALID,198,VALID,0,
1999-09-07, 03:29:00,VALID,0,VALID,99.999,VALID,-0.0679233,VALID,18.2454,VALID,198,VALID,0,
1999-09-07, 03:30:00,VALID,0,VALID,100,VALID,-0.0339617,VALID,18.2327,VALID,198,VALID,0,
1999-09-07, 03:31:00,VALID,0,VALID,100,VALID,0,VALID,18.2126,VALID,198,VALID,0,
1999-09-07, 03:32:00,VALID,0,VALID,100,VALID,-0.0509425,VALID,18.2098,VALID,198,VALID,0,
1999-09-07, 03:33:00,VALID,0,VALID,100,VALID,-0.0849042,VALID,18.2096,VALID,201,VALID,0,
1999-09-07, 03:34:00,VALID,0,VALID,100,VALID,-0.0169808,VALID,18.2101,VALID,204,VALID,0,
1999-09-07, 03:35:00,VALID,0,VALID,100,VALID,-0.0509425,VALID,18.1937,VALID,204,VALID,0,
1999-09-07, 03:36:00,VALID,0,VALID,100,VALID,-0.0339617,VALID,18.1678,VALID,201,VALID,0,
1999-09-07, 03:37:00,VALID,0,VALID,100,VALID,-0.0339617,VALID,18.1452,VALID,197,VALID,0,
1999-09-07, 03:38:01,VALID,0,VALID,99.9954,VALID,-0.0679233,VALID,18.0969,VALID,197,VALID,0,
1999-09-07, 03:39:00,VALID,0,VALID,100,VALID,-0.0509425,VALID,18.0771,VALID,197,VALID,0,
1999-09-07, 03:40:00,VALID,0,VALID,100,VALID,0,VALID,18.0773,VALID,197,VALID,0,
1999-09-07, 03:41:00,VALID,0,VALID,99.9878,VALID,-0.0169808,VALID,18.0452,VALID,207,VALID,0,
1999-09-07, 03:42:00,VALID,0,VALID,99.957,VALID,-0.0509425,VALID,17.9937,VALID,209,VALID,0,
1999-09-07, 03:43:00,VALID,0,VALID,100,VALID,0.0509425,VALID,17.9827,VALID,217,VALID,0,
1999-09-07, 03:44:00,VALID,0,VALID,100,VALID,0.0169808,VALID,18.0215,VALID,209,VALID,0,
1999-09-07, 03:45:00,VALID,0,VALID,100,VALID,0.0509425,VALID,18.015,VALID,206,VALID,0,
1999-09-07, 03:46:00,VALID,0,VALID,100,VALID,0.0509425,VALID,18.0766,VALID,203,VALID,0,
1999-09-07, 03:47:00,VALID,0,VALID,100,VALID,0.0509425,VALID,18.1773,VALID,206,VALID,0,
1999-09-07, 03:48:00,VALID,0,VALID,100,VALID,0.0679233,VALID,18.2089,VALID,206,VALID,0,
1999-09-07, 03:49:00,VALID,0,VALID,100,VALID,0.0849042,VALID,18.2154,VALID,207,VALID,0,
1999-09-07, 03:50:00,VALID,0,VALID,100,VALID,0.0849042,VALID,18.2022,VALID,211,VALID,0,
1999-09-07, 03:51:00,VALID,0,VALID,100,VALID,0.0339617,VALID,18.2249,VALID,197,VALID,0,
1999-09-07, 03:52:00,VALID,0,VALID,100,VALID,0.101885,VALID,18.2964,VALID,203,VALID,0,
1999-09-07, 03:53:00,VALID,0,VALID,100,VALID,0.0339617,VALID,18.2766,VALID,196,VALID,0,
1999-09-07, 03:54:00,VALID,0,VALID,100,VALID,0.0849042,VALID,18.3188,VALID,191,VALID,0.000223214,
1999-09-07, 03:55:00,VALID,0,VALID,100,VALID,0.0849042,VALID,18.3673,VALID,194,VALID,0.616602,
1999-09-07, 03:56:00,VALID,0,VALID,100,VALID,0.0679233,VALID,18.3671,VALID,200,VALID,0.633635,
1999-09-07, 03:57:00,VALID,0,VALID,100,VALID,0.0509425,VALID,18.338,VALID,212,VALID,0.601997,
1999-09-07, 03:58:00,VALID,0,VALID,100,VALID,-0.0339617,VALID,18.3204,VALID,213,VALID,0.803085,
1999-09-07, 03:59:00,VALID,0,VALID,100,VALID,0,VALID,18.326,VALID,219,VALID,0.880208,
1999-09-07, 04:00:00,VALID,0,VALID,100,VALID,-0.0169808,VALID,18.3618,VALID,214,VALID,0.863982,
1999-09-07, 04:01:00,VALID,0,VALID,100,VALID,0,VALID,18.3784,VALID,212,VALID,0.84565,
1999-09-07, 04:02:00,VALID,0,VALID,100,VALID,0,VALID,18.3585,VALID,215,VALID,1.01478,
1999-09-07, 04:03:00,VALID,0,VALID,100,VALID,-0.0169808,VALID,18.3234,VALID,214,VALID,0.954814,
1999-09-07, 04:04:00,VALID,0,VALID,100,VALID,0,VALID,18.3103,VALID,217,VALID,0.696135,
1999-09-07, 04:05:00,VALID,0,VALID,100,VALID,-0.0509425,VALID,18.3107,VALID,224,VALID,0.651693,
1999-09-07, 04:06:00,VALID,0,VALID,100,VALID,-0.0339617,VALID,18.3006,VALID,222,VALID,0.504012,
1999-09-07, 04:07:00,VALID,0,VALID,100,VALID,-0.0339617,VALID,18.2906,VALID,223,VALID,0.490451,
1999-09-07, 04:08:00,VALID,0,VALID,100,VALID,-0.0169808,VALID,18.2747,VALID,217,VALID,0.650724,
1999-09-07, 04:09:00,VALID,0,VALID,100,VALID,-0.0339617,VALID,18.2745,VALID,210,VALID,0.710503,
1999-09-07, 04:10:00,VALID,0,VALID,100,VALID,-0.0169808,VALID,18.2777,VALID,207,VALID,0.630664,
1999-09-07, 04:11:00,VALID,0,VALID,100,VALID,-0.0169808,VALID,18.2745,VALID,206,VALID,0.565995,
1999-09-07, 04:12:00,VALID,0,VALID,100,VALID,-0.0679233,VALID,18.2812,VALID,206,VALID,0.497677,
1999-09-07, 04:13:00,VALID,0,VALID,100,VALID,-0.0679233,VALID,18.2749,VALID,223,VALID,0.455273,
1999-09-07, 04:14:00,VALID,0,VALID,100,VALID,-0.0679233,VALID,18.2622,VALID,211,VALID,0.420654,
1999-09-07, 04:15:00,VALID,0,VALID,100,VALID,-0.101885,VALID,18.2327,VALID,210,VALID,0.494591,